Theta_e
319 319 319 318 318 318 318 318 319 319 318 318 320 320 320 320 321 321 321 321 322 322 322 321 320 320 321 322 323 325 328 332 334 345 349 352 354 353 354 353 351 349 351 350
320 319 319 319 318 318 318 318 319 319 319 320 320 321 321 321 321 321 321 321 321 321 321 321 321 321 321 321 323 324 326 328 332 334 345 347 351 351 353 353 352 352 352 351
320 321 319 318 319 319 319 319 320 320 320 320 320 321 321 321 321 321 321 321 321 321 322 322 322 321 321 321 322 322 324 327 328 332 333 342 351 352 348 350 354 352 352 352
320 319 319 317 318 319 320 319 318 318 319 320 321 323 323 323 323 323 323 323 322 323 321 321 321 321 320 321 321 321 322 323 324 329 330 331 337 347 346 346 349 352 352 352
319 318 317 318 318 318 318 318 319 319 321 322 322 323 323 323 324 324 323 324 322 322 321 321 321 319 320 320 321 321 323 326 325 325 330 332 334 336 342 344 346 350 352 352
318 319 318 318 318 318 318 319 320 321 321 324 324 325 325 325 324 324 324 322 321 319 319 320 319 319 319 320 321 321 323 326 326 326 328 336 339 341 343 343 345 350 350 351
318 319 319 318 318 319 319 320 323 325 326 326 326 326 326 325 324 323 323 322 319 319 320 319 319 319 318 319 320 321 322 323 326 327 328 331 336 342 346 348 347 347 350 351
322 323 320 320 319 319 321 322 325 331 328 327 325 327 326 324 323 322 322 320 319 319 319 318 318 318 317 318 319 320 321 322 324 326 328 329 333 336 343 347 349 348 348 350
321 322 320 320 320 320 321 323 322 325 326 328 326 326 325 324 324 321 318 317 319 319 317 318 317 317 318 318 319 320 321 322 324 325 329 330 331 337 338 343 344 346 348 347
321 324 322 322 320 320 320 321 324 326 333 330 326 327 326 323 322 320 318 317 317 316 317 317 317 317 317 317 319 319 321 321 324 326 328 328 330 334 338 344 344 342 345 345
320 323 325 323 323 322 321 323 322 322 324 332 329 326 323 321 321 320 319 317 316 317 317 316 318 318 317 318 319 320 320 322 322 324 328 330 332 333 338 340 343 343 344 343
318 321 325 322 320 321 321 321 321 332 331 328 333 331 323 323 319 317 316 316 317 317 316 317 318 318 317 317 318 318 320 321 322 321 324 325 328 332 335 337 340 341 340 342
320 324 326 324 322 320 320 320 320 320 322 325 329 325 321 319 320 319 318 317 317 316 316 317 318 318 317 316 317 318 318 319 322 321 321 322 323 328 330 331 331 332 333 333
316 320 324 326 326 324 325 321 320 320 327 325 325 322 321 321 321 317 317 317 316 317 317 318 318 318 316 316 316 317 317 318 318 321 321 321 321 322 326 328 331 330 329 328
317 321 319 318 319 319 319 318 318 319 319 321 320 320 319 317 316 316 316 316 318 317 318 318 318 318 317 315 315 314 316 316 316 317 321 320 317 318 321 326 329 330 328 328
318 322 319 320 318 318 318 317 316 316 316 317 316 315 315 315 315 315 318 319 318 317 317 317 316 316 316 315 315 314 314 314 315 316 316 320 317 316 315 318 323 325 327 327
318 318 322 324 318 317 318 316 315 315 314 314 314 315 317 317 318 319 318 317 316 315 314 314 314 315 315 314 313 313 313 313 313 314 315 317 319 315 315 315 317 323 326 327
316 318 321 319 317 320 316 315 314 315 316 317 318 317 317 317 316 315 315 314 314 314 314 313 313 312 313 313 313 312 312 313 313 312 313 314 317 317 317 315 316 318 323 325
313 316 320 322 320 317 315 317 318 318 318 316 319 318 316 315 314 314 313 313 312 311 310 310 308 308 309 309 308 309 310 311 312 312 312 312 313 316 317 317 316 315 317 322
317 315 317 319 322 320 320 318 316 316 317 318 316 315 314 314 316 314 312 311 311 310 308 308 307 306 306 305 306 307 308 309 310 311 311 312 312 314 316 318 317 316 317 318
319 319 322 320 322 317 317 316 315 317 320 316 315 314 314 313 312 311 311 310 308 307 306 305 303 303 304 303 304 304 306 307 308 309 310 311 311 313 314 316 318 317 315 316
321 320 320 319 321 320 317 316 317 317 315 314 313 312 311 310 310 309 308 308 306 304 304 303 303 302 302 303 303 305 304 304 306 307 308 310 311 312 313 314 316 317 317 317
318 318 320 320 319 317 314 315 313 312 312 312 311 310 309 309 309 308 308 305 303 302 301 300 300 300 300 301 302 301 303 305 305 305 307 308 309 310 312 313 314 316 317 317
314 314 316 316 315 315 315 313 312 311 311 310 308 308 309 308 306 306 305 303 301 300 299 298 298 298 298 298 299 301 302 303 304 304 306 307 308 309 310 311 312 313 315 318
312 313 313 314 314 314 313 312 311 310 309 308 307 307 306 306 305 303 301 299 298 297 297 296 296 297 297 297 298 299 301 302 303 305 306 306 308 307 308 310 310 312 313 315
312 312 315 317 313 312 312 311 310 309 308 307 307 305 305 304 302 300 297 297 296 295 295 295 295 295 296 297 298 299 300 300 302 302 305 305 307 307 307 308 309 309 310 311
Wind_Speed
14 13 15 17 17 18 16 13 13 8 9 9 13 16 16 15 12 16 15 15 13 12 11 12 14 14 14 14 13 13 13 12 16 20 24 24 27 29 31 31 30 30 33 35
13 15 16 14 11 10 13 14 16 15 12 12 16 19 16 17 16 18 16 16 14 12 11 8 10 13 15 18 19 18 16 14 13 19 23 27 24 28 30 31 33 29 30 35
18 12 7 12 13 14 15 16 16 15 12 11 16 21 21 20 24 18 13 13 13 10 9 8 11 14 17 19 21 24 21 17 17 16 20 23 26 28 28 29 29 35 34 34
15 16 14 11 16 14 16 15 15 15 14 14 14 14 15 12 12 16 15 12 13 6 7 9 10 14 14 17 20 20 24 25 24 18 22 25 27 26 31 29 30 31 36 36
15 15 15 19 18 13 15 12 11 12 16 17 19 13 15 14 17 14 9 16 3 9 6 10 13 17 19 21 18 21 20 21 24 25 24 26 27 31 31 30 30 30 31 38
18 7 7 12 12 13 10 11 14 16 16 17 20 18 17 17 11 6 11 2 7 10 9 11 14 17 20 21 18 18 21 20 22 24 26 26 29 30 28 31 31 30 34 34
16 19 17 13 14 13 13 12 12 15 14 17 18 17 14 6 7 7 10 10 9 11 9 10 12 14 17 20 22 20 20 22 22 23 27 29 30 31 34 33 31 33 33 33
13 14 18 15 22 17 17 16 11 14 16 18 21 17 9 5 5 8 10 6 8 10 11 13 16 18 19 19 21 23 22 25 22 25 26 29 30 31 32 36 36 32 33 34
10 18 16 10 11 9 14 16 15 18 19 17 18 25 22 21 13 5 6 10 9 12 12 15 17 19 22 22 23 18 18 22 24 26 26 27 29 29 31 32 35 39 34 45
9 16 19 16 6 14 13 14 13 8 9 18 14 15 8 8 5 5 3 9 11 12 12 16 16 19 19 22 25 20 18 20 22 24 23 26 28 28 30 32 28 32 41 41
9 6 9 17 13 15 11 13 13 15 13 11 16 11 6 3 8 13 16 11 11 14 16 15 15 18 18 20 20 20 18 15 23 21 22 25 25 25 21 24 28 31 33 44
7 7 13 19 17 16 17 16 13 9 13 13 13 14 18 18 6 7 9 14 19 15 14 12 13 14 15 19 15 18 15 20 12 16 20 18 24 18 16 18 19 23 25 25
5 6 10 12 19 20 15 15 15 16 18 23 18 15 7 10 11 17 17 14 16 15 17 11 11 12 13 18 16 16 15 17 16 14 13 11 15 17 15 12 14 14 15 15
6 13 13 12 6 3 7 13 15 15 13 18 20 25 22 22 23 17 17 16 14 15 15 13 12 15 14 16 20 17 17 15 16 14 12 10 17 16 12 12 11 13 12 13
5 12 19 20 21 21 22 22 21 22 23 23 24 26 23 22 22 21 20 14 16 16 17 17 16 17 13 18 20 25 19 18 18 17 15 9 5 19 23 8 13 13 19 12
4 5 16 19 20 21 23 22 21 23 24 24 24 25 22 22 19 16 17 17 19 19 16 21 20 20 20 24 22 22 24 22 21 23 19 14 14 17 25 30 15 16 12 15
4 5 5 15 17 16 16 18 18 15 17 18 18 17 17 19 17 18 16 17 20 23 24 23 22 21 25 26 23 25 25 25 25 25 25 16 13 14 23 27 25 13 12 10
4 10 6 7 9 12 9 1 7 10 14 15 15 15 15 14 15 20 23 25 22 22 21 21 21 26 30 29 29 28 29 30 29 28 27 28 16 18 19 24 25 23 12 12
13 6 4 4 7 13 17 5 4 8 16 15 16 19 20 23 24 26 23 18 21 22 23 23 32 35 35 35 38 39 35 32 31 32 30 27 27 19 20 24 27 28 18 14
15 14 6 4 5 4 4 3 4 10 15 12 17 18 21 23 19 18 25 26 25 24 26 28 34 35 35 34 36 36 35 32 31 33 33 31 28 24 22 22 23 30 18 17
4 5 9 11 7 7 7 7 8 9 6 21 20 22 23 21 18 27 26 29 25 24 30 29 34 33 33 37 33 33 34 33 30 32 35 31 29 25 20 18 22 22 24 24
8 5 5 7 4 6 8 9 8 13 17 19 22 20 23 25 27 30 31 29 26 25 27 32 29 30 34 34 36 34 29 36 31 32 37 33 28 23 23 23 21 21 21 18
4 3 2 3 4 6 4 6 8 7 15 17 21 22 25 27 28 29 28 26 23 22 22 30 25 27 30 30 31 33 31 33 28 32 33 30 27 23 23 24 25 22 22 22
3 1 5 7 2 9 12 11 12 17 20 21 22 24 22 28 30 28 24 22 22 21 21 29 26 19 21 28 30 31 28 28 27 26 27 23 27 21 19 20 20 22 22 21
6 6 8 10 8 13 8 16 19 19 19 21 22 23 26 24 24 22 23 22 21 20 27 27 22 19 23 27 28 28 26 27 23 23 21 19 28 22 21 22 21 23 25 25
5 3 3 3 11 9 16 18 20 20 21 22 22 26 25 19 22 24 21 20 19 19 27 23 24 22 23 24 24 23 22 24 20 22 21 22 24 23 21 19 22 31 26 25
Wind_Direction
202 225 223 234 222 258 293 287 296 263 232 243 263 275 271 267 254 252 250 253 251 246 249 254 256 259 276 289 296 295 297 289 273 237 234 226 230 228 229 228 227 218 209 206
222 232 253 241 266 261 260 258 258 261 265 259 268 267 268 262 256 255 263 266 261 259 253 276 311 316 301 294 297 294 290 281 270 258 240 244 232 235 228 226 223 226 215 209
234 233 200 269 243 240 240 251 263 265 275 260 265 265 253 247 245 249 267 266 268 272 280 331 315 308 302 297 297 291 290 283 275 266 267 255 238 244 237 229 222 219 219 212
245 241 241 251 241 232 246 240 243 255 262 262 266 282 274 276 259 217 217 237 243 251 315 307 298 296 305 302 298 297 292 290 282 262 259 261 261 242 237 235 226 218 214 216
240 229 242 236 238 237 256 275 272 269 267 277 266 264 266 252 248 234 232 237 245 267 296 292 304 307 308 302 305 306 302 295 273 271 265 265 257 251 249 243 235 222 214 210
261 274 277 252 234 240 279 265 261 264 262 259 261 261 268 261 276 266 201 276 327 317 306 299 301 307 298 308 302 307 311 299 288 280 270 263 258 260 249 238 236 223 215 215
257 255 252 229 259 243 224 256 266 260 246 256 257 247 258 310 284 223 274 308 310 301 298 293 308 306 315 308 306 304 304 308 303 292 269 261 259 256 249 249 243 232 214 207
273 257 229 244 225 250 256 246 258 269 273 287 295 279 270 291 264 278 264 284 282 288 287 303 306 299 303 314 312 301 307 302 305 299 288 263 257 253 249 243 241 244 233 206
280 274 283 243 293 279 261 253 296 294 283 279 276 279 276 269 215 236 246 241 257 263 294 297 292 300 303 302 306 303 305 311 303 305 293 274 258 250 253 250 241 236 245 226
295 294 278 272 255 254 257 286 278 259 271 266 267 279 270 341 295 264 255 270 283 283 286 289 305 300 305 302 297 285 307 312 309 312 301 279 259 248 249 249 246 240 236 256
249 253 273 298 243 258 243 246 248 265 256 265 280 273 308 262 314 304 305 300 301 288 282 309 302 302 303 298 305 308 306 316 321 322 310 315 276 261 247 252 244 233 233 241
251 263 262 260 265 269 268 270 270 248 269 251 264 267 276 283 284 288 277 268 264 291 296 285 296 301 297 299 302 306 310 321 321 326 322 335 330 283 261 245 238 231 222 235
249 230 266 255 237 232 245 265 268 262 267 259 268 269 241 237 266 244 267 289 303 311 297 287 287 287 304 301 300 303 310 308 316 323 339 351 331 305 276 245 204 197 202 208
282 265 258 273 287 169 281 278 277 275 265 269 264 283 281 282 286 299 302 296 305 302 290 281 282 286 292 299 302 297 299 304 311 300 300 345 347 328 291 244 215 189 188 202
325 262 261 265 277 283 286 281 273 264 261 262 276 277 282 299 305 299 296 313 307 294 324 324 303 294 292 289 292 294 285 290 299 297 284 270 302 327 341 279 265 232 155 194
185 267 274 268 261 265 268 271 269 269 274 275 280 283 285 282 290 303 353 325 306 312 306 302 308 302 302 298 285 278 286 289 288 287 283 270 271 252 297 319 291 224 206 175
255 248 259 258 256 262 263 260 265 276 264 268 276 299 326 311 328 332 319 302 306 307 305 304 307 311 312 297 287 287 283 279 276 276 277 260 261 238 248 269 310 293 275 226
220 270 243 273 287 262 283 56 271 279 286 287 307 299 324 328 319 323 313 306 311 319 323 316 311 310 305 303 294 294 288 285 276 267 265 269 221 231 236 231 264 303 304 274
202 223 264 256 250 285 280 321 15 333 307 322 3 349 337 330 321 300 297 339 322 312 309 303 295 293 292 290 288 286 281 273 273 267 261 256 263 212 225 231 230 244 287 293
198 222 239 271 249 269 86 171 339 322 280 23 344 325 321 317 300 304 330 315 308 303 302 300 294 286 279 280 282 277 270 267 258 261 263 257 246 251 214 222 223 227 241 265
177 205 226 236 254 272 27 358 325 273 335 329 330 325 321 313 305 307 306 308 304 303 302 296 293 284 283 280 273 275 275 265 263 262 255 261 248 239 228 212 222 215 212 236
198 209 199 225 240 253 21 328 340 337 327 324 320 320 314 308 308 308 305 305 311 302 296 291 287 280 278 274 272 266 257 261 266 261 250 249 261 237 207 211 210 217 212 219
257 238 271 240 268 294 78 327 329 352 325 321 318 318 319 312 301 304 314 306 306 303 301 295 289 288 285 277 274 268 263 264 244 251 255 252 250 255 228 203 209 209 205 209
272 218 251 288 286 355 332 342 0 343 328 322 321 314 306 305 314 308 306 309 308 307 302 300 294 287 285 282 276 269 253 259 244 244 235 243 242 237 230 230 213 210 207 199
284 258 276 282 15 335 355 345 341 321 321 315 316 314 315 317 313 312 311 310 305 304 303 300 292 289 286 285 278 272 263 268 246 250 222 240 246 221 241 226 235 223 220 210
295 339 321 296 346 341 317 329 314 324 326 327 319 320 321 325 317 315 310 307 306 305 305 301 295 290 287 286 277 269 262 251 238 238 224 221 234 219 218 237 228 238 241 225